Hovedside
METAR-TAF:

METAR-TAF

Lufthavner :

Stokmarknes, Norge

Stokmarknes lufthavn

breddegrad: 68-35N, lengdegrad: 015-01E, høyde over havet: 0 m

Gjeldene værobservasjon

Denne rapporten ble laget for 10 timer og 29 minutter siden, klokken 08:50 UTC
Vind 11 kt fra Øst
Temperatur 8°C
Luftfuktighet 49%
Trykk 1018 hPa
Sikt 10 km eller mer
ingen skyer under 1500 m og ingen bygeskyer

METAR: ENSK 270850Z 08011KT CAVOK 08/M02 Q1018

Tid: 21:19 (19:19 UTC)


TAF: fraværende

Værobservasjoner og værvarsel for over 4000 flyplasser (METAR- og TAF-rapporter).

Tilgjengelige stasjoner er representert av de røde og gule prikkene på kartet.

Hold musepekeren over prikken for å se navnet på stasjonen.

Klikk så for å se værobservasjoner og -varsler.

For å forandre kartet kan du klikke på den grønne knappen med svart kryss for å zoome inn, på den grønne knappen med strek for å zoome ut, eller på de grønne pilene for å se tilstøtende kart.


METAR-TAF: